Glendale Luke AFB, AZ

8:44 AM MST on November 12, 2019 (GMT -0700)
Luke Air Force Base

Weather History for KLUF - September, 2019

Change the Weather History Date:

Friday, September 13, 2019

  Actual Average Record
Temperature  
Mean Temperature 90 °F -  
Max Temperature 105 °F 100 °F 113 °F (1971)
Min Temperature 74 °F 67 °F 51 °F (1952)
Cooling Degree Days 24    
Growing Degree Days 40 (Base 50)    
Moisture  
Dew Point 39 °F    
Average Humidity 18    
Maximum Humidity 29    
Minimum Humidity 8    
Precipitation  
Precipitation 0.00 in - - ()
Sea Level Pressure  
Sea Level Pressure 29.83 in    
Wind  
Wind Speed 5 mph (North)    
Max Wind Speed 8 mph    
Max Gust Speed -    
Visibility 10 miles    
Events      
Averages and records for this station are not official NWS values.
T = Trace of Precipitation, MM = Missing Value Source: NWS Daily Summary

Daily Weather History Graph

Daily Weather History Graph

Search for Another Location

Airport or City:

Astronomy

Sep. 13, 2019 Rise Set
Actual Time 6:11 AM MST 6:38 PM MST
Civil Twilight 5:46 AM MST 7:03 PM MST
Nautical Twilight 5:17 AM MST 7:33 PM MST
Astronomical Twilight 4:47 AM MST 8:02 PM MST
Moon 6:50 PM MST (9/13) 5:36 AM MST (9/13)
Length of Visible Light 13h 17m
Length of Day
12h 27m
Full, 100% of the Moon is Illuminated
Sep 13
Full
Sep 13
Full
Sep 21
Last Quarter
Sep 28
New
Oct 5
First Quarter

Hourly Weather History & Observations

Time (MST) Temp. Dew Point Humidity Pressure Visibility Wind Dir Wind Speed Gust Speed Precip Events Conditions
12:58 AM 83.1 °F 37.9 °F 20% 29.83 in 10.0 mi North 8.1 mph - N/A   Clear
1:58 AM 79.5 °F 39.6 °F 24% 29.84 in 10.0 mi North 6.9 mph - N/A   Clear
2:58 AM 77.7 °F 39.0 °F 25% 29.83 in 9.0 mi NNW 5.8 mph - N/A   Clear
3:58 AM 75.9 °F 40.5 °F 28% 29.84 in 10.0 mi NW 3.5 mph - N/A   Clear
4:58 AM 75.6 °F 37.2 °F 25% 29.85 in 10.0 mi North 6.9 mph - N/A   Clear
5:58 AM 74.1 °F 39.7 °F 29% 29.86 in 7.0 mi NNW 8.1 mph - N/A   Clear
6:48 AM 75.2 °F 41.0 °F 29% 29.87 in 3.0 mi North 8.1 mph - N/A   Haze
6:55 AM 75.7 °F 39.4 °F 27% 29.87 in 10.0 mi North 5.8 mph - N/A   Clear
9:07 AM 88.9 °F 36.9 °F 16% 29.90 in 10.0 mi NE 5.8 mph - N/A   Clear
9:58 AM 92.5 °F 34.5 °F 13% 29.91 in 10.0 mi NE 3.5 mph - N/A   Clear
10:58 AM 96.6 °F 31.1 °F 10% 29.90 in 10.0 mi East 3.5 mph - N/A   Clear
11:58 AM 100.4 °F 28.4 °F 8% 29.88 in 10.0 mi Calm Calm - N/A   Clear
12:58 PM 102.4 °F 29.8 °F 8% 29.85 in 10.0 mi Calm Calm - N/A   Clear
1:58 PM 104.2 °F 34.2 °F 9% 29.82 in 10.0 mi ENE 4.6 mph - N/A   Clear
2:58 PM 105.4 °F 35.1 °F 9% 29.78 in 10.0 mi Calm Calm - N/A   Clear
3:58 PM 104.7 °F 37.2 °F 10% 29.76 in 10.0 mi Calm Calm - N/A   Clear
4:58 PM 104.5 °F 39.4 °F 11% 29.75 in 10.0 mi Calm Calm - N/A   Clear
5:58 PM 102.7 °F 42.4 °F 13% 29.75 in 10.0 mi South 6.9 mph - N/A   Clear
6:58 PM 99.3 °F 45.1 °F 16% 29.76 in 10.0 mi WSW 6.9 mph - N/A   Clear
7:58 PM 95.4 °F 45.1 °F 18% 29.77 in 10.0 mi WSW 3.5 mph - N/A   Clear
8:58 PM 94.3 °F 45.7 °F 19% 29.78 in 10.0 mi Calm Calm - N/A   Clear
10:58 PM 88.7 °F 47.3 °F 24% 29.81 in 10.0 mi North 5.8 mph - N/A   Clear
11:58 PM 88.9 °F 42.6 °F 20% 29.81 in 10.0 mi Calm Calm - N/A   Clear